FW4092 Weather Reports


time (UTC)temp
C
wind
direction
speed
KPH
gust
KPH
rain 1hr
cm
rain 24hr
cm
rain mn
cm
humidity
%
barometer
mb
20260505014131 25 340 14.5 24.1 0.00 0.00 0.00 23 1005.7
20260505013851 25 347 14.5 27.4 0.00 0.00 0.00 23 1005.8
20260505013631 25 347 14.5 27.4 0.00 0.00 0.00 23 1005.8
20260505013407 25 322 11.3 27.4 0.00 0.00 0.00 23 1005.7
20260505012631 26 35 9.7 19.3 0.00 0.00 0.00 24 1005.8
20260505012131 26 334 11.3 27.4 0.00 0.00 0.00 24 1005.7
20260505011631 26 319 12.9 27.4 0.00 0.00 0.00 24 1005.8
20260505011132 26 344 9.7 25.7 0.00 0.00 0.00 24 1005.9
20260505010632 26 337 9.7 25.7 0.00 0.00 0.00 24 1005.8
20260505010131 26 300 11.3 25.7 0.00 0.00 0.00 24 1005.8
20260505005640 26 355 9.7 20.9 0.00 0.00 0.00 25 1005.9
20260505005141 26 355 11.3 25.7 0.00 0.00 0.00 25 1006.0
20260505004639 26 323 12.9 25.7 0.00 0.00 0.00 24 1005.8
20260505004422 26 342 11.3 20.9 0.00 0.00 0.00 24 1005.9
20260505003635 26 333 11.3 20.9 0.00 0.00 0.00 24 1005.9
20260505003129 27 323 12.9 25.7 0.00 0.00 0.00 24 1006.0
20260505002628 27 5 12.9 25.7 0.00 0.00 0.00 25 1005.9
20260505002353 27 13 11.3 29.0 0.00 0.00 0.00 25 1005.9
20260505001845 27 347 11.3 29.0 0.00 0.00 0.00 24 1005.9
20260505001103 27 296 11.3 24.1 0.00 0.00 0.00 24 1005.8
20260505000559 27 18 11.3 22.5 0.00 0.00 0.00 24 1005.9
20260505000053 27 290 12.9 29.0 0.00 0.00 0.00 24 1005.8
20260504235545 27 288 12.9 29.0 0.00 0.00 0.00 24 1005.9
20260504235040 27 273 11.3 25.7 0.00 0.00 0.00 23 1005.8
20260504234532 27 0 11.3 24.1 0.00 0.00 0.00 23 1005.9
20260504234030 27 5 11.3 24.1 0.00 0.00 0.00 23 1005.8
20260504233800 27 315 12.9 24.1 0.00 0.00 0.00 23 1005.8
20260504233015 27 309 11.3 24.1 0.00 0.00 0.00 23 1005.8
20260504232511 27 291 9.7 25.7 0.00 0.00 0.00 24 1005.8
20260504232241 27 314 12.9 25.7 0.00 0.00 0.00 23 1005.9
20260504231501 27 296 12.9 29.0 0.00 0.00 0.00 23 1005.9
20260504230954 27 5 11.3 29.0 0.00 0.00 0.00 23 1005.9
20260504230711 27 325 11.3 27.4 0.00 0.00 0.00 22 1005.9
20260504225942 27 351 11.3 27.4 0.00 0.00 0.00 23 1006.0
20260504225435 27 355 9.7 25.7 0.00 0.00 0.00 22 1006.0
20260504224927 27 30 11.3 20.9 0.00 0.00 0.00 22 1006.2
20260504224429 27 355 11.3 32.2 0.00 0.00 0.00 23 1006.2
20260504223915 28 9 9.7 32.2 0.00 0.00 0.00 22 1006.1
20260504223414 28 59 9.7 19.3 0.00 0.00 0.00 22 1006.2
20260504223017 28 20 9.7 30.6 0.00 0.00 0.00 22 1006.5
20260504223003 28 320 11.3 30.6 0.00 0.00 0.00 21 1006.2
20260504221856 28 311 9.7 27.4 0.00 0.00 0.00 22 1006.4
20260504221624 28 334 9.7 27.4 0.00 0.00 0.00 23 1006.5
20260504221131 27 48 9.7 24.1 0.00 0.00 0.00 25 1006.6
20260504220555 27 44 8.0 22.5 0.00 0.00 0.00 24 1006.6
20260504215834 27 327 8.0 22.5 0.00 0.00 0.00 24 1006.5
20260504215609 27 24 9.7 22.5 0.00 0.00 0.00 24 1006.6
20260504214838 27 316 8.0 24.1 0.00 0.00 0.00 24 1006.6
20260504214334 28 36 9.7 24.1 0.00 0.00 0.00 24 1006.7
20260504213834 28 0 8.0 20.9 0.00 0.00 0.00 24 1006.6
20260504213334 28 58 6.4 17.7 0.00 0.00 0.00 25 1006.7
20260504212834 27 76 6.4 17.7 0.00 0.00 0.00 25 1006.9
20260504212334 27 53 8.0 19.3 0.00 0.00 0.00 25 1006.9
20260504211834 27 0 8.0 19.3 0.00 0.00 0.00 25 1007.0
20260504211609 27 60 8.0 20.9 0.00 0.00 0.00 26 1006.9
20260504210833 27 355 8.0 20.9 0.00 0.00 0.00 25 1007.0
20260504210334 27 31 8.0 17.7 0.00 0.00 0.00 26 1007.1
20260504205831 27 40 6.4 17.7 0.00 0.00 0.00 25 1007.1
20260504205330 27 40 4.8 16.1 0.00 0.00 0.00 25 1007.2
20260504204831 27 32 4.8 16.1 0.00 0.00 0.00 26 1007.3
20260504204330 27 355 6.4 19.3 0.00 0.00 0.00 25 1007.2
20260504203830 27 14 8.0 19.3 0.00 0.00 0.00 24 1007.4
20260504203331 27 32 6.4 19.3 0.00 0.00 0.00 24 1007.4
20260504202830 27 23 6.4 19.3 0.00 0.00 0.00 24 1007.3
20260504202335 27 74 6.4 22.5 0.00 0.00 0.00 24 1007.4
20260504202101 27 84 8.0 22.5 0.00 0.00 0.00 25 1007.5
20260504201411 26 345 6.4 14.5 0.00 0.00 0.00 24 1007.5
20260504201357 27 355 6.4 19.3 0.00 0.00 0.00 24 1007.5
20260504200329 26 32 8.0 19.3 0.00 0.00 0.00 24 1007.5
20260504195828 26 34 8.0 19.3 0.00 0.00 0.00 24 1007.7
20260504195328 26 38 8.0 17.7 0.00 0.00 0.00 24 1007.7
20260504194826 26 340 8.0 17.7 0.00 0.00 0.00 23 1007.7
20260504194612 26 34 8.0 19.3 0.00 0.00 0.00 25 1007.5
20260504193834 26 33 6.4 19.3 0.00 0.00 0.00 25 1007.7
20260504193601 26 38 4.8 16.1 0.00 0.00 0.00 27 1007.8
20260504192826 26 51 6.4 16.1 0.00 0.00 0.00 26 1007.8
20260504192325 26 344 8.0 19.3 0.00 0.00 0.00 26 1007.9
20260504191819 26 45 6.4 19.3 0.00 0.00 0.00 26 1007.8
20260504191316 26 15 6.4 24.1 0.00 0.00 0.00 27 1007.8
20260504190807 26 355 6.4 24.1 0.00 0.00 0.00 27 1007.8
20260504190303 26 53 8.0 19.3 0.00 0.00 0.00 28 1007.9
20260504190021 25 336 8.0 19.3 0.00 0.00 0.00 31 1008.0
20260504185256 25 330 8.0 29.0 0.00 0.00 0.00 32 1007.9
20260504184743 25 330 8.0 29.0 0.00 0.00 0.00 34 1007.9
20260504184240 25 333 6.4 17.7 0.00 0.00 0.00 32 1007.9
20260504183732 25 49 6.4 20.9 0.00 0.00 0.00 33 1008.1
20260504183226 25 45 8.0 20.9 0.00 0.00 0.00 35 1008.1
20260504182719 25 24 8.0 24.1 0.00 0.00 0.00 33 1008.2
20260504182220 24 45 8.0 22.5 0.00 0.00 0.00 34 1008.2
20260504182214 25 351 8.0 24.1 0.00 0.00 0.00 34 1008.2
20260504181200 24 36 8.0 22.5 0.00 0.00 0.00 33 1008.3
20260504180656 24 36 8.0 19.3 0.00 0.00 0.00 35 1008.4
20260504180422 23 337 8.0 17.7 0.00 0.00 0.00 33 1008.4
20260504175644 23 355 8.0 19.3 0.00 0.00 0.00 35 1008.5
20260504175137 24 32 8.0 19.3 0.00 0.00 0.00 34 1008.5
20260504174631 23 340 6.4 14.5 0.00 0.00 0.00 35 1008.4
20260504174400 23 46 6.4 16.1 0.00 0.00 0.00 36 1008.4
20260504173620 23 290 4.8 14.5 0.00 0.00 0.00 36 1008.3
20260504173114 23 337 4.8 14.5 0.00 0.00 0.00 35 1008.4
20260504172607 23 22 4.8 14.5 0.00 0.00 0.00 35 1008.4
20260504172100 23 36 4.8 11.3 0.00 0.00 0.00 34 1008.5
20260504171815 23 92 3.2 11.3 0.00 0.00 0.00 36 1008.4
20260504171311 23 131 1.6 11.3 0.00 0.00 0.00 35 1008.4
20260504170547 22 56 1.6 6.4 0.00 0.00 0.00 36 1008.5
20260504170110 22 61 1.6 6.4 0.00 0.00 0.00 38 1008.5
20260504170104 22 59 3.2 6.4 0.00 0.00 0.00 36 1008.5
20260504151036 13 125 3.2 11.3 0.00 0.00 0.00 54 1008.5
20260504150533 13 138 3.2 9.7 0.00 0.00 0.00 55 1008.6
20260504141039 9 153 6.4 11.3 0.00 0.00 0.00 63 1008.6
20260504140534 9 146 4.8 11.3 0.00 0.00 0.00 63 1008.6
20260504130419 9 144 4.8 11.3 0.00 0.00 0.00 62 1008.3
20260504110220 10 226 0.0 0.0 0.00 0.00 0.00 62 1008.3
20260504100210 11 259 0.0 0.0 0.00 0.00 0.00 57 1008.4
20260504081658 13 260 0.0 0.0 0.00 0.00 0.00 49 1008.5
20260504081154 13 261 0.0 0.0 0.00 0.00 0.00 48 1008.6
20260504080644 14 261 0.0 0.0 0.00 0.00 0.00 48 1008.6
20260504080139 14 261 0.0 0.0 0.00 0.00 0.00 47 1008.6
20260504050312 17 355 0.0 3.2 0.00 0.00 0.00 41 1008.4
20260504045804 17 355 0.0 1.6 0.00 0.00 0.00 40 1008.4
20260504045301 17 355 0.0 1.6 0.00 0.00 0.00 40 1008.4
20260504044759 18 355 0.0 1.6 0.00 0.00 0.00 39 1008.3
20260504044248 18 355 0.0 1.6 0.00 0.00 0.00 39 1008.3
20260504043745 18 355 0.0 1.6 0.00 0.00 0.00 38 1008.4
20260504043235 18 355 0.0 1.6 0.00 0.00 0.00 38 1008.3
20260504042728 19 355 0.0 1.6 0.00 0.00 0.00 37 1008.2
20260504042215 20 355 0.0 3.2 0.00 0.00 0.00 36 1008.3
20260504042210 20 355 0.0 3.2 0.00 0.00 0.00 36 1008.1
20260504041957 20 355 0.0 3.2 0.00 0.00 0.00 36 1008.1
20260504041201 20 355 0.0 4.8 0.00 0.00 0.00 35 1008.1
20260504040708 20 355 1.6 6.4 0.00 0.00 0.00 35 1008.0
20260504040207 20 351 3.2 8.0 0.00 0.00 0.00 35 1008.0
20260504035703 21 355 3.2 8.0 0.00 0.00 0.00 35 1008.0
20260504035204 21 355 3.2 8.0 0.00 0.00 0.00 34 1007.9
20260504034703 21 355 3.2 12.9 0.00 0.00 0.00 34 1007.8
20260504034200 21 336 3.2 12.9 0.00 0.00 0.00 33 1007.8
20260504033933 21 355 3.2 9.7 0.00 0.00 0.00 33 1007.8
20260504033432 21 355 3.2 8.0 0.00 0.00 0.00 33 1007.8
20260504032659 22 16 3.2 12.9 0.00 0.00 0.00 32 1007.7
20260504032159 22 348 4.8 12.9 0.00 0.00 0.00 32 1007.5
20260504031932 22 0 6.4 16.1 0.00 0.00 0.00 31 1007.5
20260504031204 22 355 4.8 16.1 0.00 0.00 0.00 31 1007.5
20260504030936 23 355 4.8 9.7 0.00 0.00 0.00 30 1007.4
20260504030428 23 355 4.8 14.5 0.00 0.00 0.00 30 1007.4
20260504025721 23 355 6.4 16.1 0.00 0.00 0.00 29 1007.4
20260504024655 24 5 8.0 20.9 0.00 0.00 0.00 29 1007.3
20260504024420 24 345 8.0 17.7 0.00 0.00 0.00 28 1007.2
20260504023947 24 11 8.0 20.9 0.00 0.00 0.00 28 1007.1
20260504023156 25 0 9.7 24.1 0.00 0.00 0.00 27 1007.2
20260504022649 25 355 9.7 24.1 0.00 0.00 0.00 27 1007.3
20260504022142 25 15 8.0 22.5 0.00 0.00 0.00 27 1007.1
20260504021935 26 343 8.0 27.4 0.00 0.00 0.00 27 1007.2
20260504021918 25 0 6.4 16.1 0.00 0.00 0.00 27 1007.2
20260504020624 26 50 8.0 27.4 0.00 0.00 0.00 26 1007.1
20260504020120 26 65 8.0 19.3 0.00 0.00 0.00 26 1007.1
20260504015620 26 19 9.7 25.7 0.00 0.00 0.00 26 1007.2
20260504015117 26 12 12.9 25.7 0.00 0.00 0.00 26 1007.3